User: anonymous   Login
Location: Caltech
(34.1382°N, 118.1253°W)
Time: 21:48:48
(UTC-08:00)
Language:

RS-15 - Orbit

View from above orbital plane
View from above orbital plane
View from above satellite
View from above satellite

Ground track
Ground track

The orbit data is extracted from the following two-line orbital elements,

1 23439U 94085A   14325.82648458 -.00000033  00000-0  28060-3 0  7429
2 23439 064.8195 296.8094 0147395 051.8292 309.5805 11.27561624819777
Epoch (UTC): 21 November 2014 19:50:08
Eccentricity: 0.0147395
inclination: 64.8195°
perigee height: 1898 km
apogee height: 2146 km
right ascension of ascending node: 296.8094°
argument of perigee: 51.8292°
revolutions per day: 11.27561624
mean anomaly at epoch: 309.5805°
orbit number at epoch: 81977

The dashed part of the orbit path shows where the satellite is in the earth's shadow,  

DLR